Flag for Chile Weather past 2 weeks in Valdivia, Chile

Now
41 °F

Clear.


Feels Like: 41 °F
Forecast: 44 / 64 °F
Wind: No wind

Location: Puerto Montt Airport

Current Time: Oct 2, 2014 at 3:43:43 AM

Latest Report: Oct 2, 2014 at 3:00 AM


Visibility: 10 mi

Pressure: 30.01 "Hg

Humidity: 93%

Dew point: 39 °F

Location of ValdiviaLocation

Historic Weather in Valdivia — Graph

°F

Valdivia temperature yesterday

Maximum temperature yesterday: 61 °F (at 4:00 PM)
Minimum temperature yesterday: 34 °F (at 7:00 AM)
Average temperature yesterday: 48 °F

Past Weeks' High & Low Weather Summary

 TemperatureHumidityPressure
High61 °F (Oct 1, 4:00 PM)100% (Sep 17, 4:00 AM)30.33 "Hg (Sep 17, 4:00 AM)
Low34 °F (Sep 25, 2:00 AM)52% (Oct 1, 5:00 PM)29.71 "Hg (Sep 23, 6:00 AM)
Average47 °F87%30.01 "Hg
* Reported Sep 17 2:00 AM — Oct 2 2:00 AM, Valdivia, Weather by CustomWeather, © 2014

Note: Actual official high and low records may vary slightly from our data, if they occured in-between our weather recording intervals... More about our weather records

Advertising

Valdivia weather history for previous 24 hours

 ConditionsComfort  
Time TempWeatherWind HumidityBarometerVisibility
2:00 AM
Oct 2
39 °FClear.No wind93%30.01 "Hg10 mi
1:00 AM43 °FClear.No wind93%30.01 "Hg10 mi
12:00 AM45 °FClear.5 mph93%30.01 "Hg10 mi
11:00 PM
Oct 1
45 °FClear.No wind87%30.01 "Hg10 mi
10:00 PM46 °FClear.6 mph87%30.01 "Hg10 mi
9:00 PM48 °FClear.6 mph87%30.01 "Hg10 mi
8:00 PM54 °FClear.8 mph67%30.01 "Hg10 mi
7:00 PM57 °FClear.10 mph59%29.98 "Hg10 mi
6:00 PM61 °FSunny.9 mph59%29.98 "Hg10 mi
5:00 PM61 °FSunny.9 mph52%29.98 "Hg10 mi
4:00 PM61 °FSunny.9 mph55%29.98 "Hg10 mi
3:00 PM59 °FSunny.8 mph59%30.01 "Hg10 mi
2:00 PM59 °FSunny.9 mph63%30.01 "Hg10 mi
1:00 PM57 °FSunny.9 mph55%30.01 "Hg10 mi
12:00 PM55 °FSunny.8 mph63%30.04 "Hg10 mi
11:00 AM52 °FSunny.10 mph77%30.04 "Hg10 mi
10:00 AM50 °FFog.10 mph82%30.04 "Hg4 mi
9:00 AM39 °FFog.1 mph100%30.07 "Hg1 mi
8:00 AM34 °FFog.1 mph93%30.07 "Hg0 mi
7:00 AM34 °FFog.1 mph93%30.07 "Hg0 mi
6:00 AM36 °FClear.2 mph93%30.07 "Hg1 mi
5:00 AM45 °FFog.1 mph93%30.07 "Hg4 mi
4:00 AM45 °FFog.1 mph93%30.09 "Hg3 mi
3:00 AM43 °FClear.1 mph100%30.12 "Hg10 mi
Weather by CustomWeather, © 2014

See weather overviewHow to use our weather pages